Zurück zum Katalog

CZ-6A DEB

AktivSSO
NORAD 54992·DEBRIS·🇨🇳 China

Gestartet Nov 11, 2022 von Taiyuan Satellite Launch Center

Loading…

Nächste Überflüge (nächste 24 Stunden)

TLE

AktuellSource: Space-Track

Epoche: Sep 13, 2026, 22:45 UTC

1 54992U 22151UH  26256.94818562  .00002055  00000-0  87332-3 0  9992
2 54992  98.7834 273.0860 0024519 354.0650   6.0236 14.26227292197630

Verfolge CZ-6A DEB in Echtzeit mit AllMySat

Download on the App Store